{"data":{"norad_id":62140,"epoch":"2026-09-21T01:07:15.945312Z","epoch_age_seconds":134509,"freshness":"FRESH","line1":"1 62140U 24224B   26264.04671233  .00015256  00000+0  56235-3 0  9995","line2":"2 62140  43.0030 135.1522 0001875 273.7239  86.3399 15.27605293102290","mean_motion":15.27605293,"eccentricity":0.0001875,"inclination_deg":43.003,"raan_deg":135.1522,"arg_perigee_deg":273.7239,"mean_anomaly_deg":86.3399,"bstar":0.00056235,"rev_number":10229,"period_min":94.265187911993,"perigee_km":481.6869025509,"apogee_km":484.25981893618,"semimajor_km":6861.1103607435,"source":"CELESTRAK","updated_at":"2026-09-22T09:00:49.529109Z"}}